Presure
148 194 130 165 149 93 114 142 120 115 142 89 147 209 115 136 135 121 151 127 126 126 116 125 112 125 105 111 106 109 137 133 119 131 103 128 111 116 142 83 109 124 124 126 100 88 133 99 88
214 213 150 182 171 106 145 125 91 107 158 133 190 160 195 247 167 133 196 124 136 136 130 117 205 152 157 128 146 192 156 84 160 120 122 85 210 134 120 112 145 124 90 131 128 115 129 142 102
113 197 175 164 101 165 224 88 228 202 147 112 203 197 234 223 222 172 198 155 123 226 159 252 118 147 251 112 255 177 147 281 233 265 262 119 117 166 250 175 159 131 105 124 239 213 185 223 92
208 197 168 151 94 162 179 202 231 226 150 233 238 164 244 225 142 250 253 246 247 180 235 267 136 275 132 135 251 265 280 224 96 132 270 170 258 242 247 244 238 216 234 81 174 224 220 170 227
213 228 204 210 119 197 166 211 182 157 150 217 139 191 244 145 232 194 230 161 237 259 133 148 191 234 140 97 238 147 158 217 124 132 169 203 198 223 240 239 153 92 213 216 205 127 98 87 194
164 197 218 200 199 202 214 212 228 219 197 229 219 224 224 242 236 214 139 253 200 228 311 291 151 311 226 253 186 212 196 192 197 169 223 143 209 217 150 151 178 98 230 221 241 209 158 149 201
193 208 194 217 195 196 155 168 199 194 218 209 219 226 232 232 231 162 252 137 302 293 274 278 275 260 178 307 247 210 197 194 128 189 179 134 138 210 185 174 162 196 228 188 253 229 214 218 211
201 219 198 177 204 189 218 216 190 214 180 220 214 219 227 231 227 201 145 287 250 259 260 141 275 265 268 246 239 219 218 187 151 158 200 188 192 206 203 213 233 231 219 148 187 227 224 206 105
181 205 202 204 213 180 199 188 181 216 193 213 207 219 222 232 223 235 253 287 260 131 257 271 243 263 241 220 257 215 196 183 194 112 179 192 187 199 172 187 173 233 220 217 214 214 214 163 213
197 209 182 182 203 203 174 207 202 208 213 206 200 208 221 223 231 223 266 261 241 251 278 238 245 230 282 231 206 205 212 182 195 172 189 180 189 184 189 221 245 232 225 216 207 216 207 204 193
191 193 178 187 220 192 190 206 159 194 202 211 210 219 211 230 221 254 265 244 227 244 245 238 234 217 230 219 200 204 180 172 166 205 187 194 206 194 198 204 227 230 207 208 204 198 196 192 195
195 212 194 201 213 162 188 183 180 193 204 197 213 213 222 219 233 251 261 244 225 225 244 227 233 218 235 253 214 193 189 186 184 190 186 201 183 200 192 226 202 212 209 202 193 197 183 200 190
216 195 190 195 227 209 194 207 218 201 208 201 205 202 203 226 236 284 249 238 220 230 234 251 226 212 230 230 194 204 201 192 179 180 177 182 184 194 185 199 203 205 192 201 207 189 199 187 190
194 212 189 202 231 178 214 201 210 203 202 206 192 200 201 214 242 274 247 224 212 218 232 238 239 214 219 231 206 192 196 181 188 202 182 187 192 194 189 203 214 207 196 193 197 190 185 173 191
234 140 232 221 224 210 205 207 205 200 202 204 194 201 204 222 239 252 243 211 223 231 224 231 218 239 207 186 204 191 206 173 190 182 182 187 193 198 216 215 184 193 196 185 198 182 184 185 171
178 229 221 207 228 208 205 209 199 196 195 179 199 203 202 217 212 232 240 211 220 218 233 236 215 235 239 218 215 201 201 204 199 194 194 197 229 204 202 180 196 195 202 184 182 181 174 187 182
277 226 211 232 215 200 207 200 204 189 195 192 197 204 200 216 213 261 257 204 214 211 229 209 189 208 211 201 222 211 200 214 207 218 224 162 213 193 203 204 189 184 176 180 185 186 173 162 160
208 225 230 233 210 200 158 178 197 194 196 197 199 205 195 202 209 235 240 260 198 214 185 207 216 192 204 164 202 209 217 190 176 200 193 213 200 198 185 175 182 178 175 171 181 191 194 190 181
234 236 227 224 202 199 202 199 197 193 189 194 194 205 198 194 199 209 248 263 208 199 204 216 179 205 206 167 205 191 201 193 197 188 161 190 204 203 192 194 178 153 154 186 188 161 191 162 145
235 218 229 211 191 199 203 196 199 189 190 187 197 200 198 185 208 202 224 209 230 211 199 185 203 186 185 171 191 201 167 180 199 198 182 161 196 194 195 185 200 178 171 163 185 178 185 181 165
230 222 218 204 196 200 185 197 202 189 186 189 195 202 190 186 195 207 196 251 226 247 213 192 202 209 201 177 199 186 202 193 195 190 169 173 178 178 178 181 179 181 187 195 191 160 153 179 190
243 230 209 197 193 166 183 194 176 192 186 193 189 199 190 196 183 194 211 200 259 272 231 211 208 193 192 199 185 205 176 192 193 171 185 187 190 179 188 190 187 191 162 189 160 167 159 177 165
224 216 209 204 193 194 184 185 189 191 180 188 191 189 196 193 178 193 189 198 199 246 315 208 213 200 192 199 188 210 182 195 201 200 169 172 175 201 161 173 186 176 164 179 187 163 172 178 184
222 214 207 201 193 191 186 187 183 191 184 186 195 191 190 193 185 174 196 186 205 214 240 307 253 213 202 192 192 180 212 192 190 182 200 193 181 181 197 166 170 198 186 173 169 183 170 173 172
217 220 200 196 190 182 197 188 183 196 180 183 191 190 186 195 189 184 178 198 178 195 205 241 294 284 221 207 193 187 192 177 185 186 177 195 190 183 173 180 174 182 170 177 171 169 180 177 183
212 210 200 189 187 192 158 182 190 189 188 183 191 188 189 188 192 188 180 183 191 195 181 182 226 288 299 257 206 194 200 194 189 187 182 180 179 190 183 198 175 173 183 176 174 178 187 187 180
219 209 197 193 189 179 177 180 182 189 189 186 186 192 190 190 193 187 171 179 175 191 191 198 202 215 232 277 266 241 253 204 200 193 184 190 186 182 183 196 182 179 181 179 177 181 175 230 192
204 214 195 198 187 183 196 187 189 187 186 186 184 188 185 189 189 197 184 175 169 178 181 193 194 199 198 215 237 272 257 250 249 245 227 218 192 215 201 196 194 202 242 228 198 204 221 221 222
200 217 197 196 186 180 190 190 189 189 190 185 184 182 186 196 189 191 184 181 152 167 179 179 185 192 199 181 194 210 243 264 247 241 239 239 237 235 235 246 243 238 236 234 229 223 224 216 212
197 199 197 187 179 198 186 192 190 189 187 187 177 182 190 181 197 196 192 190 168 166 172 168 175 183 190 190 201 181 190 196 208 225 258 253 238 233 229 227 220 213 211 213 213 205 204 202 199
Wind_Speed
79 80 52 79 85 34 37 72 62 61 77 32 83 65 59 70 58 63 82 62 62 64 58 63 60 63 59 63 56 65 78 80 60 79 42 76 59 64 86 24 52 65 64 66 45 28 74 36 39
67 71 68 68 76 40 78 56 44 49 59 73 65 75 68 53 56 64 70 59 61 54 65 53 71 72 52 68 76 70 79 32 66 76 77 25 76 79 68 54 86 64 31 73 68 57 72 84 26
54 65 82 89 44 81 63 43 60 70 71 47 43 49 53 49 57 64 63 76 56 65 71 62 60 70 59 47 55 77 78 53 64 55 55 60 55 41 58 79 82 74 48 70 65 69 54 71 39
68 70 83 68 40 82 81 81 53 58 80 45 47 62 45 46 67 45 45 50 53 54 61 56 57 56 61 62 45 35 40 38 33 60 52 86 46 42 52 54 59 58 61 25 47 66 67 50 60
59 51 70 69 51 60 77 76 67 63 65 57 80 49 48 74 48 50 47 73 53 53 60 61 57 56 56 51 43 66 63 33 73 46 67 54 56 45 39 54 46 33 63 63 63 34 33 35 54
65 75 55 77 81 80 72 67 56 53 67 45 48 48 47 43 49 56 40 48 55 42 30 31 63 31 43 29 56 38 53 55 47 39 45 73 53 47 76 71 69 38 55 60 52 61 53 54 58
75 66 64 58 75 76 69 62 76 64 52 53 48 45 48 45 49 60 44 61 29 28 27 25 32 25 51 31 50 55 56 43 36 54 68 42 51 57 74 48 31 42 47 60 38 42 49 43 41
73 61 72 78 75 77 63 59 71 56 63 45 46 44 46 46 50 46 58 30 34 30 26 56 23 28 29 46 58 50 52 63 39 82 48 71 68 60 60 49 40 40 38 71 35 36 33 43 48
87 67 71 68 60 70 75 71 64 52 62 44 44 46 46 46 45 40 34 17 20 56 23 25 19 22 37 33 45 47 47 55 60 38 77 75 72 63 57 55 62 42 38 41 40 35 32 33 31
76 70 78 66 72 68 65 61 56 55 48 47 46 42 46 45 41 38 23 16 22 22 16 20 19 28 24 40 48 50 47 51 49 63 75 74 73 67 58 41 36 40 34 36 35 32 35 34 41
87 80 79 77 60 70 59 61 58 60 53 43 45 43 42 41 36 30 25 16 22 15 21 24 23 30 32 47 48 57 55 65 77 54 76 70 55 68 55 47 34 33 37 36 39 40 38 40 40
84 76 81 76 65 67 69 53 57 56 50 49 43 40 42 40 34 24 21 15 19 21 20 29 26 30 34 40 68 64 67 72 74 69 74 63 68 57 58 30 39 38 39 39 40 39 45 33 37
85 81 60 66 55 57 67 60 45 46 40 44 40 39 38 39 32 22 18 17 18 20 22 24 29 27 46 54 60 73 75 77 69 67 66 69 70 67 52 46 36 35 40 36 36 40 28 36 37
79 69 69 64 53 59 51 61 44 48 39 40 39 39 38 36 28 24 16 15 18 21 23 20 31 40 45 61 75 71 79 64 74 57 72 73 70 64 54 45 34 35 33 34 32 35 37 34 40
57 64 55 57 55 55 56 51 41 45 35 38 37 37 38 32 25 18 15 15 26 18 21 20 27 33 40 39 63 66 76 55 73 72 68 70 71 61 38 36 42 34 37 36 28 35 35 34 34
59 57 50 60 51 53 54 51 43 42 36 41 36 35 36 29 23 17 14 16 20 19 25 26 32 26 34 49 65 63 71 72 78 80 74 73 48 51 47 45 37 37 36 32 34 34 32 39 38
44 51 52 53 49 56 50 46 35 43 36 35 35 33 33 28 22 19 18 15 20 18 28 26 31 38 42 44 46 62 53 67 60 64 57 44 43 47 34 36 35 35 29 30 37 43 30 40 44
59 49 51 49 49 53 44 37 36 40 34 34 35 30 32 26 23 20 14 28 16 20 19 27 44 25 40 30 39 38 50 47 41 52 45 51 49 43 40 33 32 33 27 31 37 44 49 46 43
51 50 53 49 50 49 45 39 34 37 35 33 33 29 30 25 23 21 15 21 24 19 25 34 25 35 43 26 36 38 43 45 50 44 39 34 49 47 39 40 35 44 46 36 37 43 48 51 55
50 47 49 45 49 48 39 37 34 38 35 29 35 30 31 27 21 20 16 14 36 37 27 23 29 31 23 32 33 46 34 32 52 52 38 42 43 42 42 36 46 31 31 40 39 34 44 45 55
47 47 48 48 50 46 37 37 36 36 34 31 33 31 31 24 20 20 15 14 13 36 40 29 32 43 41 27 41 33 46 46 44 37 38 36 29 28 30 32 28 36 45 55 55 52 59 55 51
47 46 51 53 45 38 35 41 32 34 34 34 31 31 30 25 23 21 14 14 12 17 44 39 42 32 32 31 30 46 37 40 44 38 35 41 43 41 39 38 44 47 50 44 53 52 56 50 62
49 54 55 53 46 43 37 45 34 32 36 32 34 33 27 26 23 21 20 16 14 10 15 25 45 39 35 41 30 52 38 40 47 52 42 39 42 47 47 43 42 41 54 44 41 58 50 53 53
57 57 53 53 44 38 47 45 36 32 36 32 38 35 28 26 27 25 18 19 14 15 9 15 44 49 52 41 42 35 55 44 41 39 49 41 41 46 45 52 50 48 43 53 54 48 54 57 56
56 55 51 49 40 43 55 46 39 33 34 37 35 36 29 28 29 27 21 18 20 14 12 9 11 26 55 61 50 40 52 42 42 43 47 50 47 42 48 46 48 47 53 51 53 55 55 55 64
58 58 53 50 51 51 31 41 44 32 34 38 40 34 36 31 30 29 24 20 19 17 19 15 9 9 17 38 61 53 61 62 48 51 46 43 44 50 49 60 51 54 52 54 55 56 66 68 61
59 50 55 58 52 43 47 39 39 39 36 40 39 36 37 38 34 32 23 25 22 22 18 16 15 12 7 13 22 43 36 64 64 61 46 56 48 48 51 63 54 56 57 58 54 62 57 66 76
53 56 61 60 45 45 53 46 50 43 41 42 42 35 38 39 39 36 34 27 22 23 21 21 18 17 16 12 10 23 27 30 31 35 52 52 62 61 73 68 68 71 54 59 76 69 62 54 51
54 58 58 59 48 44 54 53 56 47 43 44 43 42 41 41 40 41 35 32 24 23 23 25 24 22 19 23 18 15 14 20 21 23 26 29 33 34 37 37 43 43 42 42 46 48 45 46 48
60 59 62 56 45 56 54 58 57 55 46 45 46 45 45 40 40 40 39 39 30 27 31 25 27 29 25 25 19 25 21 20 18 16 23 29 32 34 36 38 40 41 42 42 45 46 47 48 47
Wind_Direction
274 273 265 274 273 246 262 271 271 269 273 252 274 276 269 275 270 272 273 272 270 271 272 270 277 273 276 275 276 276 269 270 269 269 270 268 280 278 267 263 269 274 274 274 271 263 273 273 278
278 277 276 273 274 254 275 269 258 268 276 273 281 278 277 284 273 273 273 273 271 271 273 267 267 271 271 270 267 265 264 258 259 272 273 271 260 267 273 265 265 270 264 272 272 276 273 273 267
272 274 274 269 258 276 285 252 287 282 275 264 286 282 285 281 280 274 273 275 268 272 272 265 269 269 259 271 263 263 262 253 259 260 260 268 263 269 264 263 263 269 264 273 260 264 263 267 267
277 275 271 276 250 274 276 281 290 291 273 292 295 276 288 286 272 283 279 273 271 267 272 269 267 267 264 268 259 268 271 271 252 262 259 258 268 270 266 262 263 265 259 278 265 263 265 272 272
273 282 274 273 256 277 275 282 278 276 274 287 275 283 293 276 284 279 278 276 274 272 267 276 273 269 264 264 252 261 261 266 266 264 260 256 261 262 265 259 260 272 261 261 262 275 288 288 272
274 274 275 275 277 278 277 283 288 292 291 295 290 293 289 294 283 282 265 282 279 270 268 271 273 260 254 231 249 209 245 248 246 252 253 260 251 259 260 265 261 268 257 260 262 261 268 264 269
274 269 277 275 279 280 274 282 288 291 292 289 292 296 297 291 290 281 291 277 266 265 265 262 257 245 261 176 204 229 229 229 262 250 259 258 260 258 255 258 255 256 255 262 257 252 260 261 264
266 276 272 280 273 282 281 282 291 290 293 295 294 294 296 294 293 287 279 283 276 265 259 266 247 218 203 186 194 220 191 228 213 265 252 255 252 255 255 259 245 249 249 260 245 241 241 256 265
273 275 267 279 274 286 280 287 291 288 295 291 290 299 299 297 294 297 293 270 272 263 259 243 227 225 200 216 209 186 207 232 225 251 252 251 259 258 261 259 259 249 233 241 241 240 236 261 232
270 269 272 280 272 273 285 278 286 287 291 292 290 295 299 298 299 298 283 262 280 267 257 240 196 206 214 197 199 196 182 220 222 234 241 255 257 263 264 254 230 234 221 222 231 219 238 234 247
268 267 276 277 273 279 275 280 271 295 288 294 296 295 297 300 301 293 275 257 278 242 226 213 184 194 195 190 198 191 216 235 254 228 239 247 250 255 260 265 238 220 223 221 226 237 240 244 249
266 269 272 272 272 265 277 277 289 288 287 288 295 295 297 300 305 284 253 222 259 248 222 219 190 191 187 188 183 196 207 217 223 234 238 241 256 256 264 242 244 233 224 229 237 235 249 238 250
261 268 275 277 264 266 276 272 274 282 286 289 293 299 299 306 306 253 259 214 252 237 234 206 191 194 180 186 197 190 194 206 234 244 254 253 255 256 264 258 242 231 242 232 219 242 232 250 248
268 268 273 275 253 276 257 273 270 275 283 288 291 297 303 306 311 265 254 209 248 244 230 206 192 187 183 191 192 204 199 227 223 233 244 247 251 256 253 247 215 223 228 228 222 230 243 253 252
254 269 247 255 246 254 259 261 268 275 281 285 292 298 303 308 319 301 259 249 234 234 223 204 200 192 194 215 197 208 208 237 226 240 246 250 252 252 226 214 254 232 227 236 225 244 252 259 246
262 241 250 251 240 245 254 257 267 273 279 281 291 297 299 309 309 297 252 252 248 239 213 205 187 189 193 197 204 207 212 219 223 229 237 242 242 247 247 252 221 227 230 244 242 250 243 260 263
234 235 245 241 236 245 249 260 257 273 275 281 288 290 295 310 310 292 247 249 257 230 207 216 244 192 180 195 198 209 213 219 225 228 228 248 225 245 225 222 229 238 239 244 250 249 242 258 250
241 227 231 233 231 242 261 271 260 266 270 276 279 287 291 302 307 316 281 227 242 241 246 227 195 236 191 239 203 206 209 222 230 220 235 228 230 228 241 237 237 243 251 239 249 255 255 260 275
223 223 229 225 234 245 247 252 248 258 268 275 281 279 283 295 300 311 289 246 245 239 235 214 234 217 193 243 205 212 206 216 222 232 239 240 227 232 243 236 233 246 250 257 269 240 261 246 270
220 233 224 225 241 242 242 245 239 258 263 275 275 277 278 284 304 295 295 267 223 236 240 236 229 227 242 236 225 215 237 232 229 226 233 244 237 240 245 245 241 249 246 257 265 262 271 272 265
218 226 222 222 235 239 247 238 232 250 263 270 271 273 279 275 290 294 285 319 247 228 236 246 229 226 240 236 228 235 225 227 227 237 235 240 237 241 245 247 246 257 260 259 262 250 264 262 279
209 211 220 225 238 249 250 242 263 244 260 261 272 266 274 277 277 289 315 306 337 268 225 233 234 243 246 237 237 229 240 241 238 237 239 244 242 245 248 251 255 255 244 262 254 248 261 265 256
209 217 218 220 235 240 248 252 251 241 265 262 265 268 267 271 270 291 288 300 308 320 264 243 233 243 249 255 238 231 239 248 244 243 243 238 238 250 254 238 248 241 254 255 268 255 262 271 283
207 217 216 224 236 236 251 247 254 242 261 265 256 265 269 260 269 271 289 283 323 309 296 269 232 233 240 249 251 236 238 251 249 241 247 254 243 243 257 245 244 265 268 258 259 271 258 266 266
210 214 222 227 237 237 237 239 255 237 253 260 259 262 266 262 263 274 277 289 278 299 296 325 271 245 231 234 245 245 254 237 246 247 235 254 256 248 239 245 246 256 247 261 257 259 274 275 283
210 214 216 226 230 229 239 251 247 246 244 258 255 263 266 266 261 264 270 274 293 287 273 274 302 286 263 236 235 245 248 251 250 254 249 242 243 261 254 262 250 251 265 255 256 266 279 277 278
209 215 219 224 231 239 252 257 263 244 241 250 259 257 261 266 265 263 262 273 271 289 288 294 292 285 318 250 242 237 241 248 255 259 250 260 254 254 256 268 257 257 262 262 259 268 265 272 277
219 209 222 225 233 238 235 245 247 246 244 247 255 257 260 263 265 265 264 265 267 276 281 289 286 282 278 272 267 247 244 245 247 250 249 254 262 260 263 264 265 267 251 256 267 267 260 260 259
223 211 223 228 232 238 237 242 246 246 242 247 255 258 260 257 262 266 262 265 250 266 270 275 281 278 278 269 275 278 267 260 254 247 247 251 253 254 254 254 253 255 256 253 253 259 263 265 269
222 222 218 230 232 227 237 237 244 246 242 245 254 255 257 259 261 265 265 267 255 260 268 266 278 279 277 268 273 266 271 270 265 262 269 260 255 256 256 256 257 259 262 265 264 265 267 268 271